Date,TemperatureHighF,TemperatureAvgF,TemperatureLowF,DewpointHighF,DewpointAvgF,DewpointLowF,HumidityHigh,HumidityAvg,HumidityLow,PressureMaxIn,PressureMinIn,WindSpeedMaxMPH,WindSpeedAvgMPH,GustSpeedMaxMPH,PrecipitationSumIn
2013-8-1,75.0,65.3,55.0,58.0,54.3,49.0,82,69,54,29.97,29.82,2,0,3,0.01
2013-8-2,72.0,64.2,56.0,58.0,54.1,50.0,82,70,58,30.03,29.85,2,0,3,0.00
2013-8-3,71.0,62.1,54.0,57.0,52.5,47.0,83,71,56,30.19,30.03,2,0,2,0.00
2013-8-4,69.0,59.9,48.0,56.0,50.4,42.0,83,71,60,30.22,29.93,3,1,4,0.00
2013-8-5,73.0,65.2,60.0,64.0,57.9,54.0,84,77,71,29.94,29.78,1,0,3,0.00
2013-8-6,69.0,62.5,56.0,63.0,57.0,51.0,85,82,78,29.81,29.70,2,0,3,0.04
2013-8-7,68.0,61.9,55.0,56.0,53.5,50.0,85,75,62,29.97,29.80,2,0,3,0.01
2013-8-8,70.0,62.3,58.0,59.0,55.1,52.0,85,78,65,30.01,29.94,2,0,3,0.12
2013-8-9,65.0,59.9,52.0,56.0,52.5,47.0,83,77,69,30.09,29.96,1,0,4,0.01
2013-8-10,71.0,63.6,57.0,59.0,55.3,52.0,84,75,59,30.14,30.04,3,0,3,0.00
2013-8-11,71.0,63.5,57.0,61.0,56.1,51.0,84,77,67,30.05,29.98,2,0,3,0.01
2013-8-12,73.0,62.7,53.0,61.0,53.6,48.0,85,73,58,30.08,30.00,2,0,3,0.01
2013-8-13,70.0,58.5,49.0,54.0,46.5,-99.9,83,69,55,30.17,30.08,2,0,3,0.00
2013-8-14,73.0,60.4,51.0,56.0,50.6,45.0,83,71,53,30.15,30.03,2,0,3,0.00
2013-8-15,74.0,52.0,52.0,57.0,28.8,-99.9,84,67,53,30.07,30.02,2,0,2,0.00
2013-8-21,79.0,74.0,65.0,71.0,64.9,57.0,84,74,57,30.04,29.73,2,0,3,0.01
2013-8-22,75.0,67.8,60.0,57.0,55.0,51.0,77,64,52,30.14,30.04,2,0,3,0.01
2013-8-23,78.0,65.4,53.0,61.0,55.1,46.0,83,70,54,30.11,29.95,4,1,5,0.00
2013-8-24,86.0,75.7,69.0,73.0,64.9,-99.9,84,73,61,29.96,29.76,5,2,7,0.00
2013-8-25,88.0,81.2,76.0,77.0,73.1,69.0,82,77,68,29.90,29.81,2,1,5,0.00
2013-8-26,86.0,75.7,71.0,77.0,69.4,65.0,85,81,73,29.93,29.82,3,0,4,0.12
2013-8-27,77.0,72.2,70.0,71.0,67.2,65.0,85,85,83,29.87,29.80,3,1,4,0.26
2013-8-28,82.0,79.0,74.0,73.0,71.7,68.0,82,78,75,29.99,29.95,2,1,3,0.00
2013-8-29,80.0,73.7,69.0,74.0,68.3,64.0,86,83,81,29.97,29.77,4,1,5,0.41
2013-8-30,75.0,70.2,67.0,68.0,64.5,62.0,84,82,76,29.97,29.85,2,1,3,0.01
2013-8-31,84.0,71.3,66.0,71.0,61.5,-99.9,84,76,61,29.85,29.67,3,1,4,0.51